NAHUEL I1 (ANIK C1) 1 15642U 85028B 21062.41185917 .00000067 00000-0 00000-0 0 9991 2 15642 15.0866 7.4175 0016337 77.4859 287.0112 0.99657109 27141 LEASAT 3 1 15643U 85028C 21063.57105133 -.00000173 00000-0 00000-0 0 9991 2 15643 15.1820 325.5033 0071315 255.0817 308.4523 0.96963703117898 ANIK C1 R/B(PAM-D) 1 15644U 85028D 21063.90211523 .00000678 00000-0 55035-3 0 9990 2 15644 23.2957 344.6103 6911625 162.3822 245.3892 2.72265386333435 LEASAT 3 PKM 1 16229U 85028E 21063.59164271 .00000501 00000-0 15335-3 0 9996 2 16229 26.8933 184.2849 4789100 63.1042 337.5923 5.90374260594639